EW5622 Weather Reports


Display with metric or nautical units.
time (UTC)temp
F
wind
direction
speed
MPH
gust
MPH
rain 1hr
in
rain 24hr
in
rain mn
in
humidity
%
barometer
mb
20260903221805 63 0 0.0 0.0 0.00 0.00 0.00 95 1020.1
20260903220903 64 0 0.0 0.0 0.00 0.00 0.00 95 1020.1
20260903220214 64 0 0.0 0.0 0.00 0.00 0.00 95 1020.1
20260903215403 64 0 0.0 0.0 0.00 0.00 0.00 94 1020.1
20260903214713 64 0 0.0 0.0 0.00 0.00 0.00 94 1020.1
20260903213605 65 0 0.0 0.0 0.00 0.00 0.00 93 1020.1
20260903212703 65 0 0.0 0.0 0.00 0.00 0.00 93 1020.1
20260903212013 65 0 0.0 0.0 0.00 0.00 0.00 93 1020.1
20260903210903 66 0 0.0 0.0 0.00 0.00 0.00 92 1020.1
20260903210003 66 0 0.0 0.0 0.00 0.00 0.00 92 1020.1
20260903205617 66 0 0.0 0.0 0.00 0.00 0.00 92 1020.1
20260903204503 67 0 0.0 0.0 0.00 0.00 0.00 91 1020.1
20260903203603 67 0 0.0 0.0 0.00 0.00 0.00 91 1020.1
20260903202703 68 0 0.0 0.0 0.00 0.00 0.00 91 1020.1
20260903201803 68 0 0.0 0.0 0.00 0.00 0.00 90 1020.1
20260903201114 68 0 0.0 0.0 0.00 0.00 0.00 90 1020.1
20260903200213 69 0 0.0 0.0 0.00 0.00 0.00 89 1020.1
20260903195403 69 0 0.0 0.0 0.00 0.00 0.00 89 1020.1
20260903194503 69 0 0.0 0.0 0.00 0.00 0.00 88 1020.1
20260903193603 70 0 0.0 0.0 0.00 0.00 0.00 87 1020.1
20260903192913 70 0 0.0 0.0 0.00 0.00 0.00 87 1020.1
20260903191805 71 0 0.0 0.0 0.00 0.00 0.00 85 1020.1
20260903190904 71 0 0.0 0.0 0.00 0.00 0.00 84 1020.1
20260903190003 72 0 0.0 0.0 0.00 0.00 0.00 81 1020.1
20260903185614 72 0 0.0 0.0 0.00 0.00 0.00 81 1020.1
20260903184503 72 0 0.0 0.0 0.00 0.00 0.00 79 1020.1
20260903183603 73 0 0.0 0.0 0.00 0.00 0.00 78 1020.1
20260903182703 74 0 0.0 0.0 0.00 0.00 0.00 76 1020.1
20260903181803 74 0 0.0 0.0 0.00 0.00 0.00 74 1020.1
20260903180908 75 0 0.0 0.0 0.00 0.00 0.00 72 1020.1
20260903180214 75 0 0.0 0.0 0.00 0.00 0.00 71 1020.1
20260903175403 75 0 0.0 0.0 0.00 0.00 0.00 70 1020.1
20260903174505 76 360 0.0 2.0 0.00 0.00 0.00 69 1020.1
20260903173603 77 0 0.0 0.0 0.00 0.00 0.00 69 1020.1
20260903172703 77 0 0.0 0.0 0.00 0.00 0.00 68 1020.1
20260903171803 78 360 0.0 26.0 0.00 0.00 0.00 67 1020.1
20260903170905 79 360 0.0 3.0 0.00 0.00 0.00 66 1020.1
20260903170214 80 347 0.0 3.0 0.00 0.00 0.00 66 1020.1
20260903165405 82 351 2.0 5.0 0.00 0.00 0.00 65 1020.1
20260903164505 82 357 0.0 3.0 0.00 0.00 0.00 64 1020.1
20260903163603 83 6 0.0 3.0 0.00 0.00 0.00 64 1020.1
20260903162916 83 337 0.0 2.0 0.00 0.00 0.00 65 1020.1
20260903161805 83 356 0.0 4.0 0.00 0.00 0.00 64 1020.1
20260903160903 84 359 1.0 4.0 0.00 0.00 0.00 62 1021.1
20260903160003 86 10 4.0 6.0 0.00 0.00 0.00 61 1021.1
20260903155403 87 352 0.0 3.0 0.00 0.00 0.00 60 1021.1
20260903154505 87 0 0.0 0.0 0.00 0.00 0.00 60 1021.1
20260903153814 88 22 0.0 4.0 0.00 0.00 0.00 60 1021.1
20260903152705 87 9 0.0 7.0 0.00 0.00 0.00 60 1021.1
20260903151805 87 345 0.0 5.0 0.00 0.00 0.00 60 1021.1
20260903150903 88 360 3.0 4.0 0.00 0.00 0.00 60 1021.1
20260903150213 88 350 3.0 18.0 0.00 0.00 0.00 61 1021.1
20260903145403 88 2 0.0 6.0 0.00 0.00 0.00 61 1021.1
20260903144503 87 356 6.0 6.0 0.00 0.00 0.00 62 1021.1
20260903143603 87 356 3.0 6.0 0.00 0.00 0.00 61 1021.1
20260903142703 87 343 0.0 31.0 0.00 0.00 0.00 62 1021.1
20260903141803 86 357 5.0 28.0 0.00 0.00 0.00 62 1021.1
20260903140903 87 340 0.0 39.0 0.00 0.00 0.00 61 1021.1
20260903140005 87 360 4.0 31.0 0.00 0.00 0.00 62 1021.1
20260903135404 86 325 1.0 34.0 0.00 0.00 0.00 63 1021.1
20260903134503 86 320 34.0 60.0 0.00 0.00 0.00 64 1021.1
20260903133603 85 347 36.0 36.0 0.00 0.00 0.00 65 1021.1
20260903132704 83 321 0.0 29.0 0.00 0.00 0.00 65 1021.1
20260903131805 83 329 0.0 39.0 0.00 0.00 0.00 65 1021.1
20260903131115 83 313 0.0 37.0 0.00 0.00 0.00 65 1021.1
20260903130003 83 301 17.0 17.0 0.00 0.00 0.00 65 1021.1
20260903125614 83 233 0.0 43.0 0.00 0.00 0.00 66 1021.1
20260903124504 82 283 0.0 55.0 0.00 0.00 0.00 66 1021.1
20260903123603 83 321 35.0 69.0 0.00 0.00 0.00 65 1021.1
20260903122704 82 329 69.0 69.0 0.00 0.00 0.00 66 1021.1
20260903121803 82 300 6.0 39.0 0.00 0.00 0.00 66 1021.1
20260903120903 81 290 0.0 53.0 0.00 0.00 0.00 67 1022.1
20260903120003 81 339 36.0 76.0 0.00 0.00 0.00 66 1022.1
20260903115614 82 339 5.0 76.0 0.00 0.00 0.00 67 1022.1
20260903114503 82 250 0.0 24.0 0.00 0.00 0.00 66 1022.1
20260903113605 82 315 24.0 24.0 0.00 0.00 0.00 67 1022.1
20260903112914 82 225 0.0 37.0 0.00 0.00 0.00 66 1022.1
20260903111805 83 317 0.0 47.0 0.00 0.00 0.00 66 1022.1
20260903110905 85 65 0.0 34.0 0.00 0.00 0.00 65 1022.1
20260903110214 83 88 0.0 39.0 0.00 0.00 0.00 66 1022.1
20260903105403 83 90 17.0 17.0 0.00 0.00 0.00 68 1023.1
20260903104503 82 90 0.0 22.0 0.00 0.00 0.00 68 1023.1
20260903103814 81 98 0.0 22.0 0.00 0.00 0.00 69 1023.1
20260903102915 82 22 0.0 1.0 0.00 0.00 0.00 70 1023.1
20260903101805 81 90 0.0 48.0 0.00 0.00 0.00 71 1023.1
20260903100903 80 107 0.0 75.0 0.00 0.00 0.00 73 1023.1
20260903100005 79 90 0.0 36.0 0.00 0.00 0.00 75 1023.1
20260903095405 78 67 0.0 39.0 0.00 0.00 0.00 77 1023.1
20260903094504 76 90 0.0 39.0 0.00 0.00 0.00 80 1023.1
20260903093603 76 90 39.0 39.0 0.00 0.00 0.00 80 1023.1
20260903092704 75 0 0.0 0.0 0.00 0.00 0.00 83 1023.1
20260903091805 73 59 0.0 39.0 0.00 0.00 0.00 85 1023.1
20260903090905 72 67 0.0 1.0 0.00 0.00 0.00 89 1023.1
20260903090003 71 65 0.0 39.0 0.00 0.00 0.00 90 1023.1
20260903085613 71 62 0.0 39.0 0.00 0.00 0.00 90 1023.1
20260903084714 69 97 0.0 77.0 0.00 0.00 0.00 92 1023.1
20260903083604 68 0 0.0 0.0 0.00 0.00 0.00 95 1023.1
20260903082703 67 27 0.0 39.0 0.00 0.00 0.00 97 1023.1
20260903082014 66 27 39.0 39.0 0.00 0.00 0.00 98 1023.1
20260903080903 65 0 0.0 0.0 0.00 0.00 0.00 98 1023.1
20260903080215 64 0 0.0 0.0 0.00 0.00 0.00 98 1023.1
20260903075614 64 0 0.0 0.0 0.00 0.00 0.00 98 1023.1
20260903074503 62 90 0.0 25.0 0.00 0.00 0.00 98 1023.1
20260903073603 61 90 0.0 39.0 0.00 0.00 0.00 98 1023.1
20260903072703 60 0 0.0 0.0 0.00 0.00 0.00 98 1023.1
20260903071803 59 0 0.0 0.0 0.00 0.00 0.00 98 1023.1
20260903070905 58 0 0.0 0.0 0.00 0.00 0.00 98 1023.1
20260903070214 58 0 0.0 0.0 0.00 0.00 0.00 98 1023.1
20260903065404 57 0 0.0 0.0 0.00 0.00 0.00 98 1023.1
20260903064503 55 0 0.0 0.0 0.00 0.00 0.00 98 1023.1
20260903063603 55 0 0.0 0.0 0.00 0.00 0.00 98 1023.1
20260903062705 54 0 0.0 0.0 0.00 0.00 0.00 98 1023.1
20260903061803 54 0 0.0 0.0 0.00 0.00 0.00 98 1023.1
20260903060903 53 0 0.0 0.0 0.00 0.00 0.00 98 1023.1
20260903060003 53 0 0.0 0.0 0.00 0.00 0.00 98 1023.1
20260903055405 53 0 0.0 0.0 0.00 0.00 0.00 98 1023.1
20260903054713 53 0 0.0 0.0 0.00 0.00 0.00 98 1023.1
20260903053603 53 0 0.0 0.0 0.00 0.00 0.00 98 1023.1
20260903052705 53 0 0.0 0.0 0.00 0.00 0.00 98 1023.1
20260903051803 53 0 0.0 0.0 0.00 0.00 0.00 98 1023.1
20260903050905 53 0 0.0 0.0 0.00 0.00 0.00 98 1023.1
20260903050005 53 0 0.0 0.0 0.00 0.00 0.00 98 1023.1
20260903045405 53 0 0.0 0.0 0.00 0.00 0.00 98 1023.1
20260903044505 53 0 0.0 0.0 0.00 0.00 0.00 98 1023.1
20260903043605 53 0 0.0 0.0 0.00 0.00 0.00 98 1023.1
20260903042703 53 0 0.0 0.0 0.00 0.00 0.00 98 1023.1
20260903041804 53 0 0.0 0.0 0.00 0.00 0.00 98 1023.1
20260903041114 53 0 0.0 0.0 0.00 0.00 0.00 98 1023.1
20260903040003 54 0 0.0 0.0 0.00 0.00 0.00 98 1023.1
20260903035403 54 0 0.0 0.0 0.00 0.00 0.00 98 1023.1
20260903034504 54 0 0.0 0.0 0.00 0.00 0.00 98 1023.1
20260903033603 54 0 0.0 0.0 0.00 0.00 0.00 98 1023.1
20260903032705 54 0 0.0 0.0 0.00 0.00 0.00 98 1023.1
20260903031803 54 0 0.0 0.0 0.00 0.00 0.00 98 1023.1
20260903030903 55 0 0.0 0.0 0.00 0.00 0.00 98 1023.1
20260903030003 55 0 0.0 0.0 0.00 0.00 0.00 98 1023.1
20260903025403 55 0 0.0 0.0 0.00 0.00 0.00 98 1023.1
20260903024503 55 0 0.0 0.0 0.00 0.00 0.00 98 1023.1
20260903023603 55 0 0.0 0.0 0.00 0.00 0.00 98 1023.1
20260903022703 55 0 0.0 0.0 0.00 0.00 0.00 98 1023.1
20260903021805 56 0 0.0 0.0 0.00 0.00 0.00 97 1023.1
20260903020903 56 0 0.0 0.0 0.00 0.00 0.00 97 1023.1
20260903020005 56 0 0.0 0.0 0.00 0.00 0.00 97 1023.1
20260903015403 56 0 0.0 0.0 0.00 0.00 0.00 97 1023.1
20260903014505 56 0 0.0 0.0 0.00 0.00 0.00 97 1023.1
20260903013603 56 0 0.0 0.0 0.00 0.00 0.00 97 1023.1
20260903012703 56 0 0.0 0.0 0.00 0.00 0.00 96 1023.1
20260903011803 57 0 0.0 0.0 0.00 0.00 0.00 96 1023.1
20260903010905 57 0 0.0 0.0 0.00 0.00 0.00 96 1023.1
20260903010003 57 0 0.0 0.0 0.00 0.00 0.00 95 1023.1
20260903005614 57 0 0.0 0.0 0.00 0.00 0.00 95 1023.1
20260903004504 57 0 0.0 0.0 0.00 0.00 0.00 94 1023.1
20260903003603 58 0 0.0 0.0 0.00 0.00 0.00 94 1023.1
20260903002703 58 0 0.0 0.0 0.00 0.00 0.00 94 1023.1
20260903001803 58 0 0.0 0.0 0.00 0.00 0.00 94 1023.1
20260903000905 58 0 0.0 0.0 0.00 0.00 0.00 94 1023.1
20260903000216 58 0 0.0 0.0 0.00 0.00 0.00 93 1023.1
20260902235405 59 0 0.0 0.0 0.00 0.00 0.00 93 1023.1
20260902234715 59 0 0.0 0.0 0.00 0.00 0.00 93 1023.1
20260902233603 59 0 0.0 0.0 0.00 0.00 0.00 92 1023.1
20260902232703 60 0 0.0 0.0 0.00 0.00 0.00 92 1023.1
20260902231805 60 0 0.0 0.0 0.00 0.00 0.00 91 1023.1
20260902230904 60 0 0.0 0.0 0.00 0.00 0.00 90 1024.1
20260902230003 61 0 0.0 0.0 0.00 0.00 0.00 90 1024.1
20260902225403 61 0 0.0 0.0 0.00 0.00 0.00 89 1023.1
20260902224714 62 0 0.0 0.0 0.00 0.00 0.00 89 1023.1
20260902223603 62 0 0.0 0.0 0.00 0.00 0.00 89 1023.1
20260902222705 62 0 0.0 0.0 0.00 0.00 0.00 88 1023.1